Tracking 29487 objects as of 10-Sep-2024
HD Live streaming from Space Station
objects crossing your sky now

KSM1-C

Track KSM1-C now!
10-day predictions
KSM1-C is classified as:


NORAD ID: 46906
Int'l Code: 2020-081B
Perigee: 537.9 km
Apogee: 542.6 km
Inclination: 36.9 °
Period: 95.3 minutes
Semi major axis: 6911 km
RCS: Unknown
Launch date: November 7, 2020
Source: Luxembourg (LUXE)
Launch site: SRIHARIKOTA (SRI)

Uplink (MHz):
Downlink (MHz): 401.120
Beacon (MHz):
Mode: 9600bps FSK
Call sign:
Status: Active

Your satellite tracking list
Your tracking list is empty




NASA's NSSDC Master Catalog

Two Line Element Set (TLE):
1 46906U 20081B   24253.86304269  .00020857  00000-0  12245-2 0  9998
2 46906  36.8947  39.6010 0003418 261.9498  98.0859 15.11001789210957
Source of the keplerian elements: AFSPC